CDT,Max TemperatureF,Mean TemperatureF,Min TemperatureF,Max Dew PointF,MeanDew PointF,Min DewpointF,Max Humidity, Mean Humidity, Min Humidity, Max Sea Level PressureIn, Mean Sea Level PressureIn, Min Sea Level PressureIn, Max VisibilityMiles, Mean VisibilityMiles, Min VisibilityMiles, Max Wind SpeedMPH, Mean Wind SpeedMPH, Max Gust SpeedMPH,PrecipitationIn, CloudCover, Events, WindDirDegrees
2012-10-1,80,66,51,57,49,41,82,63,24,29.95,29.90,29.87,10,9,2,30,11,39,0.00,3,Rain,341
2012-10-2,75,62,50,48,41,34,82,49,22,30.02,29.96,29.89,10,10,9,15,10,17,0.00,3,,349
2012-10-3,80,63,46,50,44,39,82,52,24,29.96,29.92,29.86,10,10,10,21,7,24,0.00,0,Thunderstorm,161
2012-10-4,64,58,53,50,44,37,82,59,45,30.22,30.13,29.94,10,10,9,26,11,32,0.00,4,,29
2012-10-5,59,52,44,39,34,25,62,49,29,30.29,30.21,30.17,10,10,10,23,14,30,0.00,5,,34
2012-10-6,50,46,42,37,31,25,76,57,37,30.36,30.31,30.27,10,10,10,18,9,24,0.00,7,Rain,21
2012-10-7,55,44,32,32,28,21,87,58,28,30.35,30.29,30.19,10,10,10,13,7,17,0.00,1,,293
2012-10-8,66,49,32,36,31,27,87,57,28,30.20,30.10,29.98,10,10,10,22,8,26,0.00,0,,184
2012-10-9,73,58,44,50,43,34,81,59,41,30.15,29.93,29.85,10,10,10,22,10,25,0.00,2,,131
2012-10-10,68,52,37,39,30,25,81,47,20,30.29,30.19,30.11,10,10,10,13,7,17,0.00,2,,77
2012-10-11,80,68,55,64,54,36,83,62,45,30.12,30.05,29.97,10,10,7,26,11,39,0.00,6,,168
2012-10-12,75,70,64,68,65,63,100,88,69,30.17,30.08,30.00,10,9,5,20,8,24,0.05,7,Rain-Thunderstorm,117
2012-10-13,75,68,60,68,64,45,94,84,52,29.96,29.79,29.62,10,10,5,32,16,43,0.00,3,Rain-Thunderstorm,177
2012-10-14,77,65,53,48,43,37,72,50,24,30.08,29.95,29.68,10,10,10,23,14,31,0.01,0,,300
2012-10-15,87,66,46,48,42,39,82,48,18,30.07,29.96,29.84,10,10,10,18,7,25,0.00,0,Rain,213
2012-10-16,82,70,59,54,49,45,68,46,26,29.84,29.68,29.50,10,10,7,29,17,34,0.00,0,,186
2012-10-17,73,60,48,61,43,19,100,56,15,29.82,29.59,29.38,10,10,5,29,13,34,0.00,1,,351
2012-10-18,68,54,41,23,17,10,49,26,11,29.92,29.87,29.82,10,7,2,43,17,53,0.00,1,,286
2012-10-19,71,58,46,23,17,14,40,23,12,29.94,29.88,29.82,10,10,7,25,14,32,0.00,0,,294
2012-10-20,86,64,41,50,37,21,68,42,23,29.84,29.75,29.66,10,10,9,17,6,21,0.00,0,,136
2012-10-21,89,76,62,66,63,54,100,71,36,29.72,29.69,29.63,10,9,3,29,14,37,0.00,0,,154
2012-10-22,80,73,66,66,60,52,78,60,37,29.84,29.79,29.72,10,10,1,24,19,33,0.00,1,,186
2012-10-23,86,75,64,66,64,59,94,69,48,29.83,29.76,29.70,10,10,2,34,18,46,0.00,2,,176
2012-10-24,84,75,66,66,64,63,94,74,51,29.82,29.76,29.68,10,10,2,34,19,43,0.00,2,,171
2012-10-25,73,57,41,63,42,32,87,64,50,30.28,29.97,29.63,10,10,3,36,22,43,0.00,4,Rain,350
2012-10-26,50,40,28,32,25,19,81,58,32,30.48,30.39,30.28,10,10,10,26,14,34,0.00,2,,6
2012-10-27,51,38,24,27,21,16,86,56,28,30.41,30.32,30.21,10,10,10,10,7,,0.00,0,,28
2012-10-28,57,42,26,27,23,18,86,50,29,30.32,30.26,30.19,10,10,10,10,5,,0.00,1,,115
2012-10-29,66,49,32,28,25,23,75,43,23,30.27,30.19,30.06,10,10,10,18,8,25,0.00,0,,156
2012-10-30,82,62,41,37,32,27,65,41,18,30.06,29.95,29.83,10,9,4,17,7,28,0.00,1,,194
2012-10-31,71,54,37,36,32,27,81,49,23,30.10,30.02,29.96,10,10,5,12,7,,0.00,0,,17